Content
SEND FEEDBACK

Daily
Averages
Monthly
Summary
United States of America

KUAPUNI NEIGHBORHOOD PARK, HAWAII


Home > North America > United States > Hawaii
Elevation: 330 feet     Latitude: 21 28N     Longitude: 158 10W

WEATHER
 
SELECT A DAY
Number of Records: 206,928;   Date Range: 1/3/95 - 7/23/14
 
SHARE

PRINT THIS DATA

[ ← Previous Day ]
WEATHER ALMANAC - JANUARY 31, 2013
[ Next Day → ]
[ °C ]   °F
Weather ElementAverageHighLow
Temperature68.6 °F76.6 °F (12:55 pm)62.1 °F (2:55 am)
Dewpoint61.7 °F64.4 °F (9:55 am)59.7 °F (2:55 am)
Humidity79.5 %92 % (2:55 am)61 % (12:55 pm)
Barometer30.06 in30.09 in (9:55 am)30.02 in (3:55 am)
Wind Speed8.4 mph16.1 mph (8:55 pm)
Wind Gust20.7 mph (12:55 pm)
Weather ElementAverage
Visibility10 mi
Wind DirectionESE (124.8 °)

Weather ElementTotal
Precipitation---
Cooling Degree Days4.3 (Base 65)
Growing Degree Days19.4 (Base 50)
Averaged from 29 records on January 31, 2013
WEATHER CONDITIONS BREAKOUT
WIND DIRECTION BREAKOUT
WEATHER BY HOUR - JANUARY 31, 2013
[ °C ]   °F
Local TimeTemperatureDewpointHumidityBarometerVisibilityWind DirectionWind SpeedGust SpeedPrecipitationEventsConditions
1:55 AM63.1 °F60.4 °F91 %30.03 in10.0 miWNW (300°)4.6 mphClear
2:55 AM62.1 °F59.7 °F92 %30.03 in10.0 miNW (310°)4.6 mphClear
3:55 AM63.0 °F60.1 °F90 %30.02 in10.0 miWNW (290°)4.6 mphClear
4:55 AM62.2 °F59.9 °F92 %30.02 in10.0 miNW (310°)5.8 mphClear
5:55 AM62.6 °F60.1 °F91 %30.03 in10.0 miWNW (300°)5.8 mphClear
6:55 AM62.8 °F60.3 °F91 %30.05 in10.0 miWNW (300°)3.5 mphMostly Cloudy
7:55 AM64.8 °F62.2 °F92 %30.06 in10.0 miNW (320°)4.6 mphOvercast
8:55 AM68.4 °F64.2 °F87 %30.08 in10.0 miNW (310°)5.8 mphClear
9:55 AM70.9 °F64.4 °F80 %30.09 in10.0 miNorth (10°)9.2 mphScattered Clouds
10:55 AM73.8 °F63.5 °F70 %30.09 in10.0 miNorth (360°)5.8 mphScattered Clouds
11:55 AM75.0 °F63.0 °F66 %30.07 in10.0 miNE (40°)11.5 mphClear
12:55 PM76.6 °F62.2 °F61 %30.05 in10.0 miENE (70°)13.8 mph20.7 mphClear
1:55 PM75.7 °F62.2 °F63 %30.03 in10.0 miNE (40°)9.2 mphPartly Cloudy
2:55 PM74.5 °F60.8 °F62 %30.02 in10.0 miNE (50°)8.1 mphScattered Clouds
3:55 PM74.7 °F62.2 °F65 %30.02 in10.0 miNNE (30°)8.1 mphPartly Cloudy
4:55 PM73.6 °F61.3 °F65 %30.04 in10.0 miNNE (20°)8.1 mphClear
5:55 PM70.9 °F62.1 °F74 %30.06 in10.0 miNorth (360°)6.9 mphPartly Cloudy
6:55 PM68.7 °F62.1 °F79 %30.06 in10.0 miVariable5.8 mphClear
7:55 PM68.4 °F61.9 °F80 %30.07 in10.0 miNE (40°)8.1 mphClear
8:55 PM68.7 °F61.3 °F77 %30.08 in10.0 miNE (40°)16.1 mphClear
9:28 PM68.0 °F60.8 °F78 %30.09 in10.0 miNorth (10°)10.4 mphLight Drizzle
9:37 PM68.0 °F60.8 °F78 %30.09 in10.0 miNorth (10°)9.2 mphPartly Cloudy
9:48 PM68.0 °F62.6 °F83 %30.09 in10.0 miNNE (20°)10.4 mphLight Drizzle
9:55 PM67.8 °F61.9 °F81 %30.09 in10.0 miNorth (10°)10.4 mph0.00 inLight Drizzle
9:58 PM68.0 °F62.6 °F83 %30.09 in10.0 miNorth (10°)9.2 mphScattered Clouds
10:09 PM68.0 °F62.6 °F83 %30.09 in10.0 miNorth (10°)10.4 mphLight Drizzle
10:32 PM66.2 °F62.6 °F88 %30.09 in10.0 miNorth (10°)10.4 mphScattered Clouds
10:55 PM66.9 °F61.9 °F84 %30.09 in10.0 miNNE (20°)11.5 mph0.00 inPartly Cloudy
11:55 PM67.1 °F60.8 °F80 %30.08 in10.0 miNNE (20°)11.5 mphPartly Cloudy
Hourly data recorded from PHHI, located miles away from Kuapuni Neighborhood Park, Hawaii







STORIES FROM OUR PARTNERS